Lexington Weather

Lexington, Massachusetts, USA

39°F
3/30/2020 8:31am 
  • Lexington Conditions: Mist, Overcast
  • Temperature: 39.4°F / 4.1°C 
  • Dew Point: 38.7°F 
  • Relative Humidity: 97
  • Wind: Wind from N N 2 mph, 10-min avg: 2 mph, gust: 5 mph
  • Barometer: 29.96 in Steady
  • Visibility: 2 miles
  • Rain Today: 0.02 in
  •   

Regional Weather Roundup
for Boston / Norton, MA

        
000
ASUS41 KBOX 280204
RWRBOX

REGIONAL WEATHER ROUNDUP
NATIONAL WEATHER SERVICE BOSTON/NORTON MA
1000 PM EDT FRI MAR 27 2020

NOTE:  "FAIR" INDICATES FEW OR NO CLOUDS BELOW 12,000 FEET WITH NO 
SIGNIFICANT WEATHER AND/OR OBSTRUCTIONS TO VISIBILITY.

MAZALL-280300-
EASTERN MASSACHUSETTS
  
CITY           SKY/WX    TMP DP  RH WIND       PRES   REMARKS
BOSTON         FAIR      50  20  30 N9        30.01R                  
BEVERLY        FAIR      47  20  34 N8        30.01R                  
LAWRENCE       FAIR      46  20  35 N6        30.04R                  
BEDFORD        FAIR      43  22  43 N7        30.01R                  
BLUE HILL        N/A     48  17  29 N7        29.99R                  
NORWOOD        FAIR      41  26  55 CALM      30.01R                  
MARSHFIELD     FAIR      39  32  75 CALM      30.02R                  
PLYMOUTH       FAIR      38  29  70 CALM      30.01R                  
TAUNTON        FAIR      39  26  59 CALM      30.01R                  
NEW BEDFORD    FAIR      45  31  58 CALM      30.00R                  
$$

MAZALL-280300-
CAPE COD AND THE ISLANDS
  
CITY           SKY/WX    TMP DP  RH WIND       PRES   REMARKS
FALMOUTH       CLEAR     39  25  56 CALM      30.01R                  
HYANNIS        FAIR      40  28  62 CALM      30.01R                  
CHATHAM        FAIR      40  30  67 SW5       30.02R                  
PROVINCETOWN   FAIR      32  29  88 E3        30.02R                  
NANTUCKET      FAIR      40  30  67 NE6       30.02R                  
MARTHAS VNYRD  FAIR      33  28  81 CALM      30.01R                  
$$
 
MAZALL-280300-
CENTRAL AND WESTERN MASSACHUSETTS
  
CITY           SKY/WX    TMP DP  RH WIND       PRES   REMARKS
WORCESTER      FAIR      49  17  28 N7        30.01R                  
FITCHBURG      FAIR      41  22  46 NW3       30.03R                  
ORANGE         FAIR      38  27  64 CALM      30.03R                  
SPRINGFIELD    CLEAR     48  26  41 N5        30.00R                  
WESTFIELD      FAIR      50  27  40 NW12      30.00R                  
NORTH ADAMS    FAIR      38  29  70 CALM      30.03R                  
PITTSFIELD     FAIR      43  26  51 SW5       30.01R                  
$$
 
RIZALL-280300-
RHODE ISLAND
  
CITY           SKY/WX    TMP DP  RH WIND       PRES   REMARKS
PROVIDENCE     FAIR      51  15  23 N6        30.01R                  
NEWPORT        FAIR      50  16  25 NE7       29.99R                  
BLOCK ISLAND   FAIR      46  33  60 NW5       30.01R                  
SMITHFIELD     FAIR      45  16  31 NE6       30.02R                  
WESTERLY       FAIR      47  30  51 CALM      30.01R                  
$$
 
CTZALL-280300-
CONNECTICUT
  
CITY           SKY/WX    TMP DP  RH WIND       PRES   REMARKS
BRADLEY INTL   FAIR      51  27  39 NW10      30.01R                  
HARTFORD       FAIR      50  28  42 CALM      30.02R                  
BRIDGEPORT     FAIR      53  21  28 N7        30.01R                  
DANBURY        FAIR      41  29  62 CALM      30.04R                  
GROTON         FAIR      46  27  47 N3        30.00R                  
NEW HAVEN      FAIR      54  24  31 N7        30.01R                  
CHESTER        FAIR      52  25  35 N8        30.01R                  
MERIDEN        FAIR      52  27  38 NW6       30.01R                  
WILLIMANTIC    FAIR      41  30  65 NE3       30.01R                  
OXFORD         FAIR      47  26  44 NW6       30.02R                  
$$

MEZ002-015-021-024-NHZ003-005-008-011-012-014-VTZ005-008-280300-
NORTHERN NEW ENGLAND
  
CITY           SKY/WX    TMP DP  RH WIND       PRES   REMARKS
PORTLAND ME    FAIR      44  20  38 W3        29.99R                  
BANGOR ME      CLOUDY    42  24  49 NW13G21   29.94R                  
CONCORD NH     FAIR      41  20  43 VRB3      30.02R                  
MANCHESTER NH  FAIR      49  18  29 NW7       30.01R                  
NASHUA NH      FAIR      47  20  34 N6        30.03R                  
PORTSMOUTH NH  CLEAR     46  17  31 W6        30.00R                  
JAFFREY NH     FAIR      40  26  57 N3        30.02R                  
KEENE NH       FAIR      40  25  55 CALM      30.03R                  
BURLINGTON VT  FAIR      41  20  43 CALM      30.06R                  
MT. WASHINGTON FOG       14  12  92 NW52G71     N/A  VSB 1/4 WCI -12  
$$

NYZ052-076-280300-
EASTERN NEW YORK
  
CITY           SKY/WX    TMP DP  RH WIND       PRES   REMARKS
ALBANY         FAIR      47  29  49 NW9       30.06R                  
NEW YORK CITY  FAIR      58  29  33 CALM      30.01R                  
$$
 
ANZALL-280300-
MARINE OBSERVATIONS
  
STATION/POSITION TIME  TEMP    WIND        PRES    VSBY  WAVE
                       AIR SEA DIR/SP/G                  HT/PER
                 (UTC) (F)     (DEG/KT/KT) (MB)    (MI)  (FT/S)
BOSTON BUOY      0150   46 43  360/  8/  8 1015.8R         4/11
BUZZARDS BAY     0100          140/  7/  8 1016.3R
NANTUCKET SOUND  0140                        N/A           1/ 6
MASS BAY-STELLWA 0104   46 42   20/  8/ 10 1013.4R  1 7/8  5/11
ISLE OF SHOALS   0100   50     330/ 18/ 20 1014.8R
S OF BLOCK IS    0130      44                N/A           3/ 6
$$

......................KEY.........................
  SKY/WX - SKY CONDITION/PRESENT WEATHER
  TMP    - TEMPERATURE IN FAHRENHEIT
  DWPT   - DEWPOINT IN FAHRENHEIT
  RH     - RELATIVE HUMIDITY IN PERCENT
  WIND   - DIRECTION AND SPEED IN MPH
  PRES   - MEAN SEA LEVEL PRESSURE IN INCHES OF HG
  WCI    - WIND CHILL INDEX
  VSB    - VISIBILITY IN MILES
  HX     - HEAT INDEX
  TC     - TEMPERATURE IN CELSIUS
  VRB    - VARIABLE WIND DIRECTION
  N/A    - NOT AVAILABLE
  
      

Other recent Regional Weather Roundups

Mon Mar 30, 8:04am

Mon Mar 30, 7:04am

Mon Mar 30, 6:04am

Mon Mar 30, 5:04am

Mon Mar 30, 4:04am

Mon Mar 30, 3:05am

Mon Mar 30, 2:04am

Mon Mar 30, 1:04am

Mon Mar 30, 12:04am

Sun Mar 29, 11:04pm

Sun Mar 29, 10:05pm

Sun Mar 29, 9:04pm

Sun Mar 29, 8:04pm

Sun Mar 29, 7:04pm

Sun Mar 29, 6:04pm

Sun Mar 29, 5:05pm

Sun Mar 29, 4:04pm

Sun Mar 29, 3:04pm

Sun Mar 29, 2:04pm

Sun Mar 29, 1:05pm

Sun Mar 29, 12:04pm

Sun Mar 29, 11:04am

Sun Mar 29, 10:04am

Sun Mar 29, 9:04am

Sun Mar 29, 8:04am

Sun Mar 29, 7:04am

Sun Mar 29, 6:04am

Sun Mar 29, 5:04am

Sun Mar 29, 4:04am

Sun Mar 29, 3:04am

Sun Mar 29, 2:04am

Sun Mar 29, 1:04am

Sun Mar 29, 12:04am

Sat Mar 28, 11:05pm

Sat Mar 28, 10:04pm

Sat Mar 28, 9:04pm

Sat Mar 28, 8:04pm

Sat Mar 28, 7:04pm

Sat Mar 28, 6:04pm

Sat Mar 28, 5:05pm

Sat Mar 28, 4:04pm

Sat Mar 28, 3:04pm

Sat Mar 28, 2:04pm

Sat Mar 28, 1:05pm

Sat Mar 28, 12:04pm

Sat Mar 28, 11:04am

Sat Mar 28, 10:04am

Sat Mar 28, 9:04am

Sat Mar 28, 8:04am

Sat Mar 28, 7:04am

Sat Mar 28, 6:04am

Sat Mar 28, 5:04am

Sat Mar 28, 4:04am

Sat Mar 28, 3:04am

Sat Mar 28, 2:04am

Sat Mar 28, 1:04am

Sat Mar 28, 12:04am

Fri Mar 27, 11:04pm

Fri Mar 27, 9:04pm

Fri Mar 27, 8:04pm

Fri Mar 27, 7:05pm

Fri Mar 27, 6:04pm

Fri Mar 27, 5:05pm

Fri Mar 27, 4:05pm

Fri Mar 27, 3:04pm

Fri Mar 27, 2:05pm

Fri Mar 27, 1:04pm

Fri Mar 27, 12:04pm

Fri Mar 27, 11:04am

Fri Mar 27, 10:04am

Fri Mar 27, 9:04am

Meta data:

ID: 1ee21a90-9f2d-487b-b72b-6233a9165d6b
Link: https://api.weather.gov/products/1ee21a90-9f2d-487b-b72b-6233a9165d6b